HS5XCL-1 Weather Reports


time (UTC)temp
C
wind
direction
speed
KPH
gust
KPH
rain 1hr
cm
rain 24hr
cm
rain mn
cm
humidity
%
barometer
mb
20260505041145 35 0 0.0 0.0 0.00 0.00 0.00 100 968.0
20260505040135 35 0 0.0 0.0 0.00 0.00 0.00 100 968.0
20260505035125 35 0 0.0 0.0 0.00 0.00 0.00 100 968.0
20260505034115 35 0 0.0 0.0 0.00 0.00 0.00 100 968.0
20260505033105 33 0 0.0 0.0 0.00 0.00 0.00 100 968.0
20260505032055 34 0 0.0 0.0 0.00 0.00 0.00 100 968.0
20260505031045 34 0 0.0 0.0 0.00 0.00 0.00 100 968.0
20260505030035 34 0 0.0 0.0 0.00 0.00 0.00 100 968.0
20260505025025 34 0 0.0 0.0 0.00 0.00 0.00 100 968.0
20260505024015 33 0 0.0 0.0 0.00 0.00 0.00 100 968.0
20260505023005 33 0 0.0 0.0 0.00 0.00 0.00 100 968.0
20260505021955 33 0 0.0 0.0 0.00 0.00 0.00 100 968.0
20260505020944 33 0 0.0 0.0 0.00 0.00 0.00 100 968.0
20260505015934 32 0 0.0 0.0 0.00 0.00 0.00 100 968.0
20260505014924 32 0 0.0 0.0 0.00 0.00 0.00 100 968.0
20260505013914 32 0 0.0 0.0 0.00 0.00 0.00 100 968.0
20260505012904 32 0 0.0 0.0 0.00 0.00 0.00 100 968.0
20260505011854 32 0 0.0 0.0 0.00 0.00 0.00 100 968.0
20260505010844 32 0 0.0 0.0 0.00 0.00 0.00 100 968.0
20260505005834 31 0 0.0 0.0 0.00 0.00 0.00 100 968.0
20260505004824 31 0 0.0 0.0 0.00 0.00 0.00 100 968.0
20260505003814 31 0 0.0 0.0 0.00 0.00 0.00 100 968.0
20260505002804 31 0 0.0 0.0 0.00 0.00 0.00 100 968.0
20260505001754 31 0 0.0 0.0 0.00 0.00 0.00 100 968.0
20260505000744 31 0 0.0 0.0 0.00 0.00 0.00 100 968.0
20260504235735 31 0 0.0 0.0 0.00 0.00 0.00 100 967.0
20260504234724 31 0 0.0 0.0 0.00 0.00 0.00 100 967.0
20260504233714 31 0 0.0 0.0 0.00 0.00 0.00 100 967.0
20260504232704 31 0 0.0 0.0 0.00 0.00 0.00 100 967.0
20260504231655 31 0 0.0 0.0 0.00 0.00 0.00 100 967.0
20260504230645 31 0 0.0 0.0 0.00 0.00 0.00 100 967.0
20260504225634 31 0 0.0 0.0 0.00 0.00 0.00 100 967.0
20260504224624 31 0 0.0 0.0 0.00 0.00 0.00 100 967.0
20260504223614 31 0 0.0 0.0 0.00 0.00 0.00 100 967.0
20260504222604 31 0 0.0 0.0 0.00 0.00 0.00 100 966.0
20260504221554 31 0 0.0 0.0 0.00 0.00 0.00 100 966.0
20260504220544 31 0 0.0 0.0 0.00 0.00 0.00 100 966.0
20260504215534 31 0 0.0 0.0 0.00 0.00 0.00 100 966.0
20260504214524 31 0 0.0 0.0 0.00 0.00 0.00 100 967.0
20260504213514 31 0 0.0 0.0 0.00 0.00 0.00 100 967.0
20260504212504 31 0 0.0 0.0 0.00 0.00 0.00 100 967.0
20260504211454 31 0 0.0 0.0 0.00 0.00 0.00 100 967.0
20260504210444 31 0 0.0 0.0 0.00 0.00 0.00 100 967.0
20260504205434 31 0 0.0 0.0 0.00 0.00 0.00 100 967.0
20260504204424 31 0 0.0 0.0 0.00 0.00 0.00 100 967.0
20260504203414 31 0 0.0 0.0 0.00 0.00 0.00 100 967.0
20260504202404 31 0 0.0 0.0 0.00 0.00 0.00 100 967.0
20260504201353 31 0 0.0 0.0 0.00 0.00 0.00 100 967.0
20260504200343 32 0 0.0 0.0 0.00 0.00 0.00 100 967.0
20260504195555 31 0 0.0 0.0 0.00 0.00 0.00 100 967.0
20260504194545 31 0 0.0 0.0 0.00 0.00 0.00 100 967.0
20260504193535 31 0 0.0 0.0 0.00 0.00 0.00 100 967.0
20260504192524 31 0 0.0 0.0 0.00 0.00 0.00 100 967.0
20260504191514 32 0 0.0 0.0 0.00 0.00 0.00 100 967.0
20260504190504 32 0 0.0 0.0 0.00 0.00 0.00 100 967.0
20260504185454 32 0 0.0 0.0 0.00 0.00 0.00 100 967.0
20260504184444 31 0 0.0 0.0 0.00 0.00 0.00 100 967.0
20260504183434 32 0 0.0 0.0 0.00 0.00 0.00 100 967.0
20260504182424 32 0 0.0 0.0 0.00 0.00 0.00 100 967.0
20260504181414 32 0 0.0 0.0 0.00 0.00 0.00 100 967.0
20260504180404 32 0 0.0 0.0 0.00 0.00 0.00 100 967.0
20260504175354 32 0 0.0 0.0 0.00 0.00 0.00 100 967.0
20260504174344 31 0 0.0 0.0 0.00 0.00 0.00 100 967.0
20260504173334 31 0 0.0 0.0 0.00 0.00 0.00 100 967.0
20260504172324 31 0 0.0 0.0 0.00 0.00 0.00 100 967.0
20260504171314 32 0 0.0 0.0 0.00 0.00 0.00 100 967.0
20260504170305 32 0 0.0 0.0 0.00 0.00 0.00 100 967.0
20260504160205 33 0 0.0 0.0 0.00 0.00 0.00 100 967.0
20260504151115 36 0 0.0 0.0 0.00 0.00 0.00 100 965.0
20260504150105 36 0 0.0 0.0 0.00 0.00 0.00 100 965.0
20260504141016 38 0 0.0 0.0 0.00 0.00 0.00 100 964.0
20260504110713 42 0 0.0 0.0 0.00 0.00 0.00 100 961.0
20260504100613 42 0 0.0 0.0 0.00 0.00 0.00 100 961.0
20260504081423 43 0 0.0 0.0 0.00 0.00 0.00 100 962.0
20260504080413 43 0 0.0 0.0 0.00 0.00 0.00 100 962.0
20260504070312 42 0 0.0 0.0 0.00 0.00 0.00 100 964.0
20260504060212 40 0 0.0 0.0 0.00 0.00 0.00 100 965.0
20260504050112 38 0 0.0 0.0 0.00 0.00 0.00 100 966.0